Погода в Славгороде

Погода в Славгороде : погода сейчас, прогноз погоды и архив. Всё, что Вы хотите узнать о погоде в Славгороде!

Хотите узнать прогноз погоды в Славгороде? Тогда Вам сюда: Погода в Славгороде

Поиск расширенной информации на нашем сайте:

Другие новости

Новости СМИ2

Главная страница сайта

Новости сайта

03.07.2017

Напоминаем, что на нашем специализированном сайте Метеоцентр.Азия вы можете получить высокодетализированные автоматические прогнозы погоды по пунктам России, СНГ и мира в авиационном формате (включающие направление и скорость ветра, видимость, явления погоды, количество и форму облачности, нижнюю и верхнюю границу облачности).


Погода в Славгороде - сегодня

Время (UTC), дата Ветер
(°,м/с) 
Видим.   Явления Облачность Т
(°С)
Тd
(°С)
f(%) Тe
(°С)
Pmin
(гПа)
dP
(гПа)
Po
(мм)
O2
(г/м3)
Тmin Tmax R s Состояние
почвы
15 17.11.17 220 (ЮЗ) 20000 м    10/10 870 м 
[Sc]
+0.3 -2.7 80 -2  1026.9  -0.7  758  305           
18 17.11.17 210 (ЮЗ) 20000 м    10/10 700 м 
[Sc]
+1.1 -2.5 77 -1  1026.3  -0.5  759  305           
21 17.11.17 210 (ЮЗ) 20000 м    3/0 верхняя 
[Ci sp]
-0.6 -3.5 81 -3  1025.2  -1.2  757  306           
00 18.11.17 190 (Ю) 20000 м    8/8 900 м 
[Sc]
-3.7 -5.7 86 -8  1024.4  -1  756  310  -3.7      равномерный
сухой снег
100% 
03 18.11.17 180 (Ю) 20000 м    10/10 1020 м 
[Sc]
-2.8 -5.3 83 -6  1023  -1.4  755  308  -3.9         
06 18.11.17 180 (Ю) 20000 м    10/3 1000 м средняя 
[Sc|Ac trans]
-1.6 -5 78 -5  1020.8  -2  754  306           
12 18.11.17 180 (Ю) 20000 м    10/10 960 м 
[Sc]
+0.1 -3 80 -2  1017.9  -0.6  752  303    +0.5       
15 18.11.17 210 (ЮЗ) 10 км  слаб. ливневой снег  10/10 660 м кучево-дожд. 
[Cb cap]
+0.3 -1.1 90 -3  1017.1  -0.7  751  302           
18 18.11.17 250 (З) 10 км  слаб. ливневой снег  10/10 600 м кучево-дожд. 
[Cb cap]
+0.1 -0.5 96 -2  1018  0.8  752  303           
21 18.11.17 300 (СЗ) 20000 м  в посл. час ливневой снег  10/10 700 м кучево-дожд. 
[Cb cap]
-0.1 -0.7 96 -2  1020.1  2.1  753  304           
00 19.11.17 300 (СЗ) 20000 м  {ливн. осадки}  10/10 720 м кучево-дожд. 
[Cb cap]
-1.8 -3.3 89 -5  1022.8  2.6  755  307  -2.3    равномерный
мокрый или
старый снег
100% 
03 19.11.17 300 (СЗ) 20000 м    10/10 720 м кучево-дожд. 
[Cb cap]
-2.2 -4.4 85 -5  1025.9  757  308           
06 19.11.17 290 (З) 20000 м  слаб. ливневой снег  9/9 660 м кучево-дожд. 
[Cb cap]
-1.8 -3.9 86 -5  1028.1  2.1  759  308           
09 19.11.17 280 (З) 20000 м  {ливн. осадки}  10/10 750 м кучево-дожд. 
[Cb cap]
-1.8 -5.3 77 -5  1030.1  760  309           
12 19.11.17 230 (ЮЗ) 20000 м  {ливн. осадки}  10/10 900 м 
[Sc]
-3.2 -5.3 85 -4  1032  1.8  762  311    -1  0.0     
15 19.11.17 230 (ЮЗ) 20000 м    9/0 средняя 
[Ac trans]
-3.6 -5.1 89 -6  1032.2  0.2  762  312           
18 19.11.17 240 (ЮЗ) 20000 м    10/10 660 м кучево-дожд. 
[Cb cap]
-1.9 -3.4 89 -5  1032  -0.1  762  310           
21 19.11.17 250 (З) 20000 м    10/10 630 м кучево-дожд. 
[Cb cap]
-1.7 -3.1 90 -4  1032.5  0.5  762  309           
00 20.11.17 270 (З) 20000 м  {ливн. осадки}  10/10 600 м кучево-дожд. 
[Cb cap]
-1.9 -3.3 90 -5  1033.8  1.3  763  310  -4.7    0.0  равномерный
сухой снег
100% 
03 20.11.17 260 (З) 20000 м    10/10 900 м 
[Sc]
-2.4 -3.6 91 -4  1034.7  0.8  764  311           
06 20.11.17 260 (З) 20000 м  слаб. ливневой снег  10/10 600 м кучево-дожд. 
[Cb cap]
-0.8 -2.7 87 -3  1035.6  765  309           
09 20.11.17 260 (З) 20000 м  {ливн. осадки}  10/8 630 м кучево-дожд., средняя 
[Cb cap|Ac trans]
-0.4 -2.6 85 -2  1035.6  0.1  765  309           
12 20.11.17 240 (ЮЗ) 20000 м  {ливн. осадки}  10/10 600 м кучево-дожд. 
[Cb cap]
-1.1 -2.1 93 -2  1036.3  0.6  765  310    -0.4  0.4     
15 20.11.17 270 (З) 20000 м    10/10 660 м кучево-дожд. 
[Cb cap]
-1 -2.5 90 -3  1036.6  0.3  765  310           
18 20.11.17 250 (З) 10 км  слаб. ливневой снег  10/10 600 м кучево-дожд. 
[Cb cap]
-1.4 -2.8 90 -3  1036.5  -0.1  765  310           
Время (UTC), дата Ветер
(°,м/с) 
Видим.   Явления Облачность Т
(°С)
Тd
(°С)
f(%) Тe
(°С)
Pmin
(гПа)
dP
(гПа)
Po
(мм)
O2
(г/м3)
Тmin Tmax R s Состояние
почвы

Для получения пояснительной информации подведите курсор к названию столбца.

ПОГОДА в Славгороде - архив

Всё, что Вы хотите узнать о погоде в Славгороде - удобно и подробно!

Выберите нужную дату (начиная с 1 января 2015* года) и нажмите кнопку "Найти".
Будут отображены архивные сводки погоды по пункту Славгород, начиная с указанной даты.


Отображать данные в формате CSV (для использования в таблицах Excel)


Внимание! Наш архив погоды предназначен исключительно для личного некоммерческого использования в познавательных целях. Если Вам необходимы официальные справки о состоянии погоды (для производственных, юридических, коммерческих и т.п. целей), обращайтесь в органы Росгидромета.

*Примечание: данная дата относится к архиву по метеостанциям СССР (Россия, СНГ, Балтия).
Архив по метеостанциям Зарубежной Европы и Азии (кроме Китая) хранится 10 дней, по другим регионам земного шара (Китай, Африка, Америка, Австралия, Океания) - 1 день.

Славгород - район местоположения метеостанции


Название, широта, долгота, высота метеостанции:
Славгород 53°ш. 78.6°д. 126 м над ур. моря [Российская Федерация]

Дополнительная информация

В oтличие oт бoльшинства пoгoдных сайтoв мы публикуем пoдрoбную метеoинфoрмацию в детальнoм прoфессиoнальнoм фoрмате.

Характеристики температуры и влажнoсти вoздуха измеряются на высoте 2 м в тени вдали oт зданий и деревьев.
Скoрoсть ветра измеряется на высoте 10 м (на урoвне рoста челoвека скoрoсть ветра ниже в 1.5-2 раза). Если метеoстанция нахoдится в гoрoде или в лесу, тo скoрoсть ветра занижена на 2-4 м/с пo сравнению с oткрытым местoм. Скoрoсть ветра над акватoриями крупных рек и oзёр, а также на вершинах хoлмoв на 2-5 м/с выше, чем в oбычных услoвиях.
Атмoсфернoе давление в разных тoчках местнoсти мoжет значительнo oтличаться oт давления на метеoстанции, в зависимoсти oт услoвий рельефа (при пoдъёме на 10 м давление пoнижается примернo на 1 мм рт.ст.).